Tracking 25195 objects as of 21-Jan-2022
HD Live streaming from Space Station
objects crossing your sky now

BRAZILSAT B2

Track BRAZILSAT B2 now!
BRAZILSAT B2 is classified as:


NORAD ID: 23536
Int'l Code: 1995-016A
Perigee: 36,079.6 km
Apogee: 36,091.6 km
Inclination: 9.6 °
Period: 1,451.0 minutes
Semi major axis: 42456 km
RCS: 7.5458 m2 (large)
Launch date: March 28, 1995
Source: Brazil (BRAZ)
Launch site: FRENCH GUIANA (FRGUI)

24 C-band; several X-band.
aabbcc
Your satellite tracking list
Your tracking list is empty




NASA's NSSDC Master Catalog

Two Line Element Set (TLE):
1 23536U 95016A   22020.48508829 -.00000262  00000-0  00000-0 0  9991
2 23536   9.5543  42.0802 0001404 303.9722  71.9948  0.99239595 98138
Source of the keplerian elements: AFSPC